Theta_e
319 320 321 322 322 324 326 323 323 321 322 323 318 319 317 316 317 315 316 315 316 316 313 314 313 314 315 317 317 317 316 319 321 320 324 320 316 317 317 318 317 316 316 316 315 315 315 316 316 317 320 325 327 326 326 326 326 327 327 329 330 330 331 331 332 333 333 333 334 334 335 335 335 334 334 334 335 335 335 335 335 335 335 334 334 333 333 333 332 331 330 329 328 327 326 325 325
320 321 324 325 325 327 327 324 328 326 324 321 316 319 316 314 316 317 318 317 318 315 314 315 314 315 315 315 315 316 317 317 316 317 318 316 315 316 316 316 315 315 314 314 314 314 314 314 314 313 313 317 323 326 327 326 325 324 325 327 328 329 330 330 331 332 332 333 333 333 333 334 334 334 334 334 334 335 335 336 335 335 335 335 334 334 334 334 333 332 331 330 330 328 327 326 325
320 323 325 326 327 326 327 323 326 328 325 322 318 319 316 314 318 318 317 315 316 314 315 315 314 315 313 314 313 315 319 316 315 316 315 315 315 314 314 315 314 313 312 312 312 312 312 313 313 314 313 312 314 318 322 324 325 324 325 325 327 328 329 329 329 330 331 332 332 333 332 333 333 332 333 333 334 334 335 335 335 335 334 334 334 335 335 334 334 333 333 332 331 330 328 326 325
319 323 322 325 326 324 330 329 328 330 324 323 320 320 319 318 318 314 313 314 314 314 313 313 313 312 313 315 314 315 318 316 316 315 315 315 315 314 314 314 313 311 310 310 310 310 311 311 311 312 313 313 312 313 314 316 319 320 322 324 325 326 328 329 329 329 330 330 331 332 331 331 332 332 332 332 333 333 334 333 334 334 333 334 334 335 335 335 335 333 333 333 332 331 330 328 327
320 321 321 325 327 322 328 326 325 327 321 323 320 318 321 319 316 312 312 314 313 313 312 312 313 312 312 314 313 315 317 316 316 315 314 314 314 314 313 312 310 309 309 308 308 309 309 309 310 310 310 311 312 312 312 312 313 314 315 317 319 321 324 325 327 328 328 329 329 330 329 329 330 331 331 332 333 333 333 333 333 333 333 334 333 334 335 335 335 334 334 333 333 332 331 330 328
320 321 321 324 324 318 322 320 320 323 319 323 321 318 319 315 313 312 312 312 312 313 312 312 313 312 312 312 312 314 315 315 315 314 313 313 313 312 311 309 308 308 307 307 307 307 308 308 308 308 308 309 309 310 310 311 311 312 312 312 313 314 316 318 320 322 324 325 326 326 327 327 328 328 329 330 331 331 332 332 333 333 333 333 333 333 333 334 334 334 334 334 333 333 331 330 329
320 322 321 321 319 316 325 326 324 323 316 316 318 318 315 311 311 312 311 311 312 311 312 312 312 313 314 312 312 313 314 313 313 314 312 312 311 310 309 308 307 306 306 306 306 307 307 307 307 307 307 308 308 308 308 309 309 310 310 311 311 312 312 313 313 315 316 319 320 322 323 324 325 326 326 328 329 330 331 332 333 333 333 333 332 332 332 332 332 332 332 332 332 332 331 329 329
321 322 319 323 325 322 328 326 324 322 314 309 312 314 312 310 311 311 311 312 313 311 311 312 311 315 315 311 312 313 314 313 312 313 312 311 310 309 308 307 306 305 306 306 306 306 306 306 307 307 307 307 307 307 308 307 308 308 308 309 309 310 310 311 311 312 312 314 315 317 318 320 322 322 323 324 325 326 327 329 330 330 331 331 332 332 331 331 330 330 330 330 330 331 331 330 329
319 321 318 324 329 327 328 322 318 318 315 313 311 311 311 311 311 311 311 311 312 311 311 312 311 313 313 310 311 312 313 312 312 312 311 310 309 308 306 306 305 305 305 305 306 306 306 306 306 306 306 306 306 306 306 306 307 307 307 307 308 308 308 309 309 310 311 311 312 313 314 315 317 318 319 320 321 322 323 324 325 327 328 329 330 331 331 331 330 330 330 330 330 330 330 330 330
318 321 317 323 328 324 323 320 319 318 316 314 311 311 311 311 311 311 311 311 311 311 311 311 311 311 311 310 309 311 312 312 311 311 310 309 308 306 305 305 304 305 305 305 305 305 305 305 305 305 305 305 305 305 305 305 305 305 305 305 306 306 306 307 307 308 308 309 309 310 311 312 314 315 316 317 319 320 321 322 322 324 325 326 327 329 330 331 331 330 330 329 329 329 330 331 331
319 319 317 325 331 323 323 324 323 321 317 313 311 311 312 312 311 310 310 311 311 311 311 311 311 310 309 309 309 311 311 311 310 310 309 308 307 305 304 304 304 304 305 305 305 305 305 304 304 304 303 303 303 303 303 303 303 303 303 303 303 303 303 304 305 306 306 307 307 307 308 309 310 311 313 314 315 316 318 320 321 322 322 323 324 326 328 329 330 330 330 330 330 329 329 330 330
318 319 325 332 330 325 326 326 325 325 323 317 314 312 312 311 311 311 311 312 311 310 310 311 312 311 309 308 309 310 310 310 309 309 308 307 306 304 304 303 304 304 304 304 304 303 303 303 302 302 302 302 302 302 302 302 302 302 302 302 302 302 302 302 302 302 303 304 305 306 306 306 307 307 308 309 311 312 313 315 317 318 319 320 321 322 324 325 327 329 330 330 330 330 329 329 329
317 320 331 327 320 322 322 322 323 324 324 318 313 311 311 310 311 312 311 311 310 310 312 311 311 311 311 309 309 309 309 310 308 308 307 306 305 304 303 303 304 304 304 303 303 302 302 301 301 301 301 301 301 301 301 301 301 301 301 302 302 301 301 301 301 301 301 301 302 302 303 304 305 305 306 306 307 307 308 310 311 313 315 316 317 318 319 320 322 325 328 329 330 329 329 329 329
316 318 327 323 315 319 321 321 320 319 321 318 312 310 311 310 311 312 312 313 311 311 313 311 310 311 311 309 309 309 309 309 307 307 307 306 304 303 303 303 304 303 303 303 303 302 301 301 301 301 301 301 301 301 301 301 301 301 301 301 301 301 301 301 301 301 301 301 301 300 300 301 301 302 303 304 304 305 305 305 306 308 309 311 312 314 315 316 317 319 321 324 326 327 328 328 329
316 316 325 327 317 318 320 320 318 318 321 318 312 310 310 310 311 311 312 315 313 311 312 310 310 312 311 310 311 311 310 308 307 307 306 306 304 303 303 303 303 303 303 302 302 302 301 301 301 301 301 301 301 301 302 301 302 301 301 301 301 301 301 301 301 300 300 300 300 300 300 300 300 300 300 301 301 302 303 303 303 304 305 306 307 308 310 312 313 315 316 317 319 321 323 325 327
318 316 324 328 318 318 318 316 316 319 318 313 311 310 311 310 310 311 311 312 312 311 311 310 310 311 310 310 311 311 310 308 307 307 306 305 304 303 303 303 303 302 302 302 301 301 301 301 301 301 301 301 302 302 302 302 302 301 301 301 301 301 301 300 300 300 300 300 300 300 300 300 300 299 299 299 299 300 300 300 301 301 302 302 303 304 305 306 308 310 312 313 314 315 316 318 320
318 320 329 327 320 320 319 317 317 320 320 312 309 310 311 311 309 310 310 310 311 310 310 310 310 310 310 310 310 310 309 308 307 306 305 305 304 302 302 302 302 301 301 301 301 301 300 300 301 301 301 301 302 302 302 302 301 301 301 301 301 301 300 300 300 300 300 300 300 300 300 300 299 299 299 299 299 299 299 299 299 299 300 300 300 301 302 303 304 305 306 308 310 312 313 314 315
319 329 329 321 322 324 321 320 315 316 319 312 308 310 312 313 310 309 310 309 309 309 309 310 310 310 310 310 309 309 309 308 307 306 306 304 303 302 302 302 301 301 301 301 301 301 300 300 300 301 301 301 302 301 301 301 301 301 301 301 300 300 300 300 300 300 300 300 300 300 300 300 300 299 299 299 299 299 299 299 299 299 299 299 299 299 299 300 301 301 302 303 305 306 308 310 312
319 328 324 320 326 321 315 315 311 312 315 310 309 310 310 313 311 309 311 310 308 309 309 309 309 310 310 310 309 308 308 308 307 306 305 305 304 302 302 302 301 301 301 301 301 301 300 300 300 301 301 301 301 301 301 301 301 300 300 300 300 300 300 300 300 300 300 300 300 300 300 300 300 300 300 299 299 299 299 298 298 298 298 298 298 298 299 299 299 299 300 300 301 302 303 305 307
315 320 323 324 322 315 311 312 312 313 312 309 309 309 309 311 311 310 310 309 306 308 310 308 309 310 310 309 308 308 308 308 307 306 305 305 304 302 302 302 301 302 301 301 301 301 300 300 300 300 301 301 301 301 300 300 300 300 300 300 300 299 299 299 299 299 299 299 299 299 299 300 300 299 299 299 299 299 299 299 298 298 298 298 298 298 298 298 298 298 299 299 299 300 300 301 302
314 317 324 320 312 313 314 312 313 312 311 310 309 309 309 310 310 309 309 310 309 308 311 311 312 313 311 309 308 308 308 308 307 306 305 304 303 302 302 301 301 301 302 302 301 301 300 300 300 300 300 301 300 300 300 300 300 300 299 299 299 299 299 299 299 299 299 299 299 299 299 299 299 299 299 299 299 299 299 299 299 299 299 298 299 298 298 298 298 298 298 298 298 298 298 299 299
314 314 315 312 309 314 314 311 313 312 311 311 308 310 311 310 309 309 309 312 313 311 313 314 313 313 312 311 310 308 307 307 307 306 305 304 302 302 301 301 301 301 301 302 301 300 300 300 300 300 300 300 300 300 300 300 300 300 299 299 299 298 298 298 298 298 298 298 298 298 298 298 299 299 299 298 298 298 298 298 298 298 298 298 299 299 299 298 298 298 298 298 298 298 298 298 298
315 314 310 310 310 313 313 312 313 312 311 310 309 311 311 309 309 310 308 311 313 312 313 313 312 312 311 311 310 309 308 307 307 306 305 304 302 302 302 301 301 301 301 301 301 300 300 300 300 300 300 300 300 300 300 300 300 300 299 299 299 298 298 298 298 298 298 298 298 298 298 298 298 298 298 298 298 298 298 298 297 298 298 298 298 298 298 298 298 298 298 298 298 298 298 298 298
316 316 310 311 311 311 313 312 312 313 312 311 310 310 309 310 311 309 308 311 313 312 312 312 312 312 310 310 309 309 309 308 308 306 305 304 303 302 301 301 301 301 301 301 300 300 300 300 300 300 300 300 300 300 299 299 299 299 299 299 298 298 298 297 297 297 297 297 297 297 297 297 298 298 298 298 298 298 297 297 297 297 297 297 297 297 297 298 298 298 298 298 298 298 298 298 298
314 315 311 311 311 312 313 312 313 312 312 312 310 310 309 310 309 307 309 312 312 311 312 311 311 311 310 309 309 309 308 308 307 306 304 303 302 301 301 300 300 301 301 301 300 300 299 299 300 299 299 299 299 299 299 299 299 299 299 298 298 298 297 297 297 297 297 297 297 297 297 297 297 297 297 297 297 297 297 297 297 297 296 296 296 296 296 297 297 297 297 297 298 298 298 298 298
312 313 312 311 311 312 312 312 312 311 311 311 310 310 309 309 308 308 311 312 311 311 311 311 310 310 310 309 309 309 308 308 307 305 304 302 301 301 300 300 300 300 300 300 300 299 299 299 299 299 299 299 299 299 298 298 298 298 298 297 297 297 297 297 297 297 297 297 297 296 296 297 297 297 296 296 297 297 297 297 297 297 296 296 296 296 296 296 296 296 296 297 297 297 297 297 297
311 311 311 311 311 311 311 311 311 311 310 309 310 311 309 307 308 310 312 311 310 310 310 310 310 309 310 310 309 308 308 308 307 305 304 302 301 301 300 300 300 300 300 299 299 299 300 299 299 299 299 299 298 298 298 298 298 297 297 297 297 297 296 296 296 296 296 296 296 296 296 296 296 296 296 296 296 296 296 296 296 296 296 296 296 296 296 296 296 296 295 296 296 296 296 296 297
310 309 311 309 308 309 309 309 309 309 310 309 309 308 307 306 308 311 310 310 310 309 310 309 309 309 309 309 309 308 307 307 306 305 304 303 303 302 300 300 300 300 299 299 299 299 299 299 299 299 298 298 298 297 297 297 297 297 297 297 296 296 296 296 296 296 296 295 295 295 295 295 295 295 295 295 295 295 295 296 296 296 296 295 295 295 295 295 295 295 295 295 295 295 295 296 296
309 310 313 313 313 313 309 308 308 308 310 308 308 309 310 308 309 311 310 309 309 308 309 309 309 309 308 308 308 308 307 306 305 304 304 304 303 302 301 300 300 300 299 299 299 299 299 299 298 298 298 297 297 297 297 297 297 297 297 296 296 296 296 295 295 295 295 295 295 295 295 294 295 295 295 295 295 295 295 295 295 295 295 295 295 295 295 295 295 295 295 295 295 295 295 295 295
311 309 312 318 320 319 309 305 307 307 310 308 308 315 317 312 309 310 310 308 308 308 308 308 308 308 308 308 307 307 307 306 305 305 304 303 302 301 300 300 299 299 299 299 299 299 298 298 298 298 297 297 297 297 297 297 296 296 296 296 295 295 295 295 295 295 295 294 294 294 294 294 294 294 294 294 294 294 294 294 294 294 294 294 294 294 294 294 294 295 295 295 295 295 294 295 295
313 309 314 320 318 321 314 305 307 309 309 307 309 316 318 315 311 311 311 308 307 307 308 308 308 308 307 307 307 307 307 306 306 304 304 302 301 301 300 300 299 298 298 298 298 298 298 298 297 297 297 296 297 296 296 296 296 296 295 295 295 295 295 295 295 294 294 294 294 293 293 293 293 293 293 294 294 293 293 293 293 293 293 293 293 293 293 294 294 294 294 294 294 294 294 294 294
318 312 321 324 315 324 320 305 305 310 309 306 309 315 315 314 311 310 310 308 307 306 307 308 307 308 307 307 307 307 307 306 305 304 303 302 301 300 300 299 299 298 298 298 298 298 298 297 297 297 297 296 296 296 296 296 295 295 295 295 295 295 294 294 294 294 294 293 293 293 293 293 293 293 293 293 293 293 293 293 293 293 293 293 293 293 293 293 293 293 293 293 293 294 294 294 294
324 315 321 327 318 320 320 308 303 306 308 307 308 313 316 314 310 309 309 308 306 305 305 307 307 307 307 306 306 306 306 305 304 303 302 301 300 300 299 298 298 298 297 297 297 298 298 297 297 297 296 296 296 296 295 295 295 295 294 294 294 294 294 293 293 293 293 293 293 293 292 292 292 293 293 293 293 293 293 293 293 292 292 292 292 292 292 292 292 292 293 293 293 293 293 293 293
327 318 318 324 319 314 317 315 306 302 307 310 309 310 312 313 310 308 309 308 306 304 304 307 307 307 306 306 306 305 305 305 304 304 302 300 299 299 298 298 297 297 297 296 297 297 297 296 296 296 295 295 295 295 295 294 294 294 294 294 294 294 293 293 293 293 293 293 292 292 292 292 292 293 293 293 293 293 293 293 292 292 291 291 291 291 291 292 292 292 292 292 292 292 293 293 293
322 320 320 321 318 314 315 317 309 305 308 310 310 310 309 310 310 308 308 307 306 305 305 306 306 307 305 305 305 305 305 305 305 305 302 300 299 298 298 297 297 296 296 296 297 296 296 296 295 295 295 295 295 295 294 294 294 294 293 293 293 293 293 293 292 293 292 292 292 292 292 292 292 292 292 292 292 293 293 292 292 291 291 291 291 291 291 291 291 291 292 292 292 292 292 292 293
320 321 322 321 319 315 315 314 307 304 308 309 309 309 308 308 309 308 308 307 305 305 304 304 304 305 303 303 304 305 305 306 306 304 302 300 298 298 297 297 296 295 296 296 296 296 295 295 295 295 295 295 295 294 294 294 293 293 293 293 293 293 292 292 292 292 292 292 292 292 292 292 292 292 292 292 292 292 292 292 292 291 291 290 290 290 290 290 291 291 291 291 291 292 292 292 292
317 318 318 317 316 314 313 312 307 302 307 311 309 308 308 307 307 307 307 306 304 303 302 301 303 303 302 302 304 305 305 306 305 304 302 300 298 298 297 296 295 295 295 296 296 295 295 295 295 295 294 294 294 294 293 293 293 293 293 293 293 293 292 292 292 292 292 292 292 292 292 292 292 292 291 292 292 292 292 291 291 291 290 290 290 290 290 290 290 290 290 291 291 291 291 291 292
313 315 315 314 314 314 311 309 307 304 306 311 311 309 308 306 307 306 306 306 305 304 302 302 303 303 302 302 303 304 305 305 304 303 302 300 298 297 297 296 295 295 295 295 295 295 295 294 294 294 294 294 293 293 293 293 293 293 293 293 293 293 293 293 292 292 292 292 292 292 292 291 291 291 291 291 291 291 291 291 291 290 290 290 290 290 290 290 290 290 290 290 290 290 291 291 291
315 315 314 315 314 314 313 308 306 305 306 311 312 309 308 308 307 307 307 307 308 308 306 305 305 303 303 303 304 304 304 304 303 302 302 301 299 297 296 296 295 295 295 295 295 295 294 294 294 294 294 293 293 293 293 293 293 293 293 293 293 293 293 293 292 292 292 292 292 291 291 291 291 291 291 291 291 291 291 291 290 290 290 290 289 289 289 289 289 289 290 290 290 290 290 290 290
316 314 315 318 314 314 316 312 308 307 307 308 310 307 307 308 307 308 308 306 307 308 307 307 306 305 305 305 306 305 305 304 303 302 301 301 299 297 296 296 295 295 295 295 295 295 294 294 294 294 293 293 293 293 292 292 293 293 293 293 293 293 293 292 292 292 292 292 291 291 291 291 291 291 291 291 291 291 291 291 290 290 290 289 289 289 289 289 289 289 289 289 290 290 290 290 290
318 315 315 317 315 315 316 313 309 310 309 306 308 310 311 312 310 310 308 304 305 305 305 306 305 305 306 305 306 306 306 305 304 303 302 301 300 298 297 296 295 295 295 295 295 295 294 294 294 293 293 293 292 292 292 293 293 293 292 292 292 292 292 292 292 292 291 291 291 291 291 291 291 291 291 291 291 291 291 290 290 290 290 289 289 289 289 289 289 289 289 289 289 289 289 289 289
320 318 315 315 316 315 313 312 310 315 316 307 308 314 314 315 314 314 312 310 310 307 306 306 305 305 305 305 307 307 306 305 304 304 303 302 301 299 297 296 295 295 295 295 295 295 295 294 293 293 293 292 292 292 292 293 293 292 292 292 292 292 292 292 291 291 291 291 291 291 290 290 290 291 291 291 291 290 290 290 289 289 289 289 289 289 289 288 288 289 289 289 288 288 288 289 289
318 317 314 312 312 311 311 311 311 318 318 308 309 315 315 313 315 320 319 317 317 312 311 310 306 306 306 306 308 308 308 306 305 304 303 302 301 299 298 297 296 296 295 295 294 294 294 293 293 293 292 292 292 292 292 292 292 292 292 292 292 291 292 291 291 291 290 290 291 290 290 290 290 291 290 290 290 290 289 289 289 289 288 288 288 288 288 288 288 288 288 288 288 288 288 288 289
319 312 311 313 311 312 313 310 310 314 311 309 311 311 312 312 313 317 316 315 315 312 312 311 307 306 306 307 309 309 309 308 306 305 304 303 301 300 300 299 297 296 295 294 294 294 294 293 293 293 292 292 292 292 292 292 292 292 292 292 291 291 291 291 291 290 290 290 290 290 290 290 290 290 290 290 290 289 289 289 289 288 288 288 288 288 288 288 288 288 288 287 287 288 288 288 289
318 307 308 312 311 312 313 309 310 309 307 312 313 307 310 313 312 312 310 310 314 313 314 313 309 307 307 309 311 310 310 310 308 307 306 304 303 302 301 300 298 296 295 294 294 294 293 293 292 292 292 292 292 292 292 292 292 292 291 291 291 290 290 290 290 290 290 290 290 290 290 290 290 290 290 290 290 289 289 289 288 288 288 288 288 288 287 287 287 287 287 287 287 288 288 288 289
309 303 307 309 309 310 310 309 310 309 309 314 314 308 311 315 315 313 309 310 314 314 315 313 308 306 307 310 312 311 311 310 310 308 306 305 304 303 302 300 298 296 295 294 294 294 293 292 292 292 292 292 292 292 292 292 292 291 291 291 290 290 290 290 290 290 290 290 290 290 290 290 290 290 290 290 289 289 288 288 288 288 288 287 287 287 287 287 287 287 287 287 287 288 288 288 289
302 305 310 311 310 307 307 310 310 311 315 315 312 309 310 314 316 314 312 313 317 316 315 313 309 306 308 311 312 312 311 310 310 309 306 305 303 302 301 300 299 297 295 294 294 293 293 292 292 292 292 291 292 292 292 291 291 291 290 290 290 290 290 290 290 290 290 289 290 290 290 290 290 290 289 289 289 288 288 288 288 287 287 287 287 287 287 287 287 287 287 287 287 288 288 288 288
303 312 314 314 315 311 312 314 312 315 318 315 311 307 307 312 314 312 312 312 314 316 317 320 315 309 310 313 312 311 311 309 309 308 306 305 303 301 300 299 299 297 295 294 293 293 293 292 292 292 291 291 292 292 292 291 291 290 290 290 290 290 290 290 289 289 289 289 289 289 290 290 290 289 289 289 288 288 288 288 287 287 287 287 286 286 286 286 287 287 287 287 288 288 288 287 288
307 315 317 317 317 317 319 319 315 318 318 311 306 306 307 310 311 310 311 312 311 309 311 316 314 310 312 313 311 310 310 309 308 307 307 305 304 303 302 300 299 297 295 294 293 293 292 292 292 292 291 291 292 292 291 291 290 290 290 290 290 289 289 289 289 289 289 289 289 289 289 289 289 289 289 288 288 288 287 287 287 287 286 286 286 286 286 286 286 287 287 287 288 288 287 287 287
307 313 318 319 318 320 323 320 315 315 316 310 304 307 310 310 311 311 310 311 311 305 305 310 311 311 312 311 310 310 310 309 308 307 306 306 305 304 303 302 300 298 296 294 294 293 293 292 292 292 291 291 292 292 291 291 290 290 290 290 289 289 289 289 289 289 289 289 289 289 289 289 288 288 288 288 287 287 287 286 286 286 286 286 286 286 286 286 286 286 287 287 287 287 287 287 286
307 313 314 316 322 324 323 322 318 316 319 312 305 309 314 312 313 313 309 307 307 306 306 309 310 310 310 309 309 309 309 309 308 307 306 306 305 304 303 302 300 299 297 294 293 293 293 292 292 292 291 291 291 291 291 291 290 290 290 289 289 289 289 289 289 289 289 289 289 289 288 288 288 288 288 287 287 286 286 286 285 285 285 285 285 285 285 286 286 286 287 287 287 287 286 286 285
307 310 312 313 318 318 316 317 315 314 317 314 309 311 314 311 311 312 309 307 306 306 305 305 307 308 306 306 308 309 310 310 309 308 307 306 305 304 303 302 300 299 297 295 294 293 293 292 292 292 291 291 291 291 291 290 290 290 289 289 289 289 289 289 289 289 289 289 288 288 288 288 288 288 287 287 287 286 285 285 285 285 285 285 285 285 285 285 286 286 286 286 287 286 285 284 284
308 309 312 312 311 313 316 314 309 309 314 315 314 314 311 310 311 310 310 309 307 307 304 302 304 305 303 304 308 309 310 310 310 309 308 306 305 304 302 301 300 299 297 295 294 293 293 292 292 292 291 291 291 291 290 290 290 289 289 289 289 289 289 289 289 289 288 288 288 288 288 287 287 287 287 287 286 285 285 284 284 284 284 284 284 285 285 285 286 286 285 285 285 285 283 283 282
310 313 312 308 307 311 316 317 314 313 315 316 316 314 311 312 312 309 308 308 309 309 307 304 303 302 301 304 308 310 309 310 310 309 307 306 304 304 303 302 300 300 298 296 294 293 292 292 292 292 291 291 291 290 290 290 289 289 289 289 289 289 289 288 288 288 288 288 288 287 287 287 287 287 286 286 285 285 285 284 284 284 284 284 284 285 285 285 285 285 285 284 283 282 281 281 279
306 309 306 307 313 314 313 315 316 316 315 317 319 314 311 312 312 310 310 311 311 309 307 305 305 301 299 303 308 310 309 309 310 309 308 307 306 305 304 302 301 299 297 296 294 293 292 292 291 291 291 291 290 290 290 289 289 289 289 289 289 288 288 288 288 288 288 288 287 287 287 287 287 286 286 285 285 285 284 284 284 284 284 284 284 285 285 285 284 284 284 283 282 280 278 279 278
301 303 302 306 312 315 314 313 314 316 314 314 316 312 312 313 314 315 312 311 313 312 309 308 307 302 299 304 310 310 310 310 310 310 309 308 307 306 304 302 301 299 297 295 293 292 292 292 291 291 291 290 290 290 289 289 289 289 289 289 288 288 288 288 288 288 287 287 287 287 287 287 286 286 285 285 285 284 284 283 283 284 284 284 284 285 285 285 284 284 283 282 281 280 277 277 276
303 305 306 305 307 310 312 310 311 316 315 314 314 312 312 313 314 316 314 312 313 311 311 312 307 302 303 308 310 310 310 310 310 309 309 308 307 306 303 301 299 298 295 293 292 292 292 291 291 291 290 290 290 289 289 289 289 289 288 288 288 288 288 288 288 287 287 287 287 287 287 286 286 285 285 284 284 283 283 283 283 283 284 284 284 285 285 284 284 283 282 281 281 279 277 276 274
306 306 307 306 306 309 311 310 310 311 313 316 316 312 311 312 313 315 314 315 315 309 310 312 306 303 307 310 310 310 310 309 309 309 308 308 307 305 303 300 298 296 294 293 292 292 291 291 291 290 290 290 290 289 289 289 288 288 288 288 288 288 288 288 288 288 288 287 287 287 286 286 285 285 285 284 283 283 283 283 283 283 284 284 284 285 285 284 282 282 281 280 280 278 277 276 274
Wind_Speed
6 7 7 7 6 6 4 4 2 2 3 2 0 1 2 2 1 2 2 1 1 2 2 4 8 10 7 5 7 7 5 3 3 2 3 6 8 5 3 4 5 6 8 9 9 9 9 8 7 8 9 9 9 9 10 10 9 9 8 8 8 7 7 6 6 6 6 5 6 6 6 7 8 10 10 10 10 11 11 11 10 10 9 9 9 9 9 9 10 11 11 11 11 12 14 14 14
6 7 7 7 5 4 3 2 1 2 3 2 2 1 1 0 1 4 5 4 3 6 9 11 13 12 10 10 10 8 5 5 5 5 8 10 8 5 4 4 5 6 8 8 8 7 7 7 7 7 8 9 10 11 11 11 11 11 11 10 10 10 9 10 9 8 7 7 7 8 8 7 7 9 9 10 10 10 10 11 11 10 10 10 10 10 10 9 10 11 12 12 12 12 13 15 15
6 7 6 5 3 3 2 1 1 1 3 1 2 2 1 2 4 5 6 7 12 18 17 15 13 10 9 6 5 3 4 8 8 9 10 11 8 5 4 4 5 6 7 6 6 6 6 6 6 7 8 9 10 11 12 13 13 13 13 12 12 12 12 13 12 12 11 10 10 11 11 11 10 10 10 10 11 11 12 12 12 11 11 10 10 10 11 11 10 10 11 12 12 12 12 13 15
5 6 5 4 3 2 2 2 1 3 2 2 2 2 2 4 6 4 7 15 21 20 13 9 6 5 3 1 5 4 5 10 9 9 9 10 9 6 4 4 5 5 5 5 5 5 6 6 6 6 7 8 8 10 11 12 13 14 14 15 14 14 14 14 14 14 14 14 13 13 13 14 13 13 13 13 13 14 14 15 14 13 13 12 11 11 12 12 12 11 11 11 12 12 13 13 14
4 3 4 4 2 1 2 2 2 3 1 3 1 3 4 5 6 5 14 20 20 13 6 6 3 4 3 4 7 3 7 12 10 9 8 10 9 7 4 4 4 3 3 3 3 4 4 4 5 4 5 6 7 8 9 10 11 12 13 14 15 15 16 15 16 16 16 16 16 16 16 16 16 16 15 14 14 15 16 16 16 16 15 15 14 13 13 12 13 12 12 12 12 13 13 13 13
3 2 2 4 2 1 2 2 2 2 3 4 2 3 5 7 10 13 18 18 14 5 4 7 4 6 4 4 7 5 11 11 10 12 9 10 9 6 4 3 2 2 2 3 3 4 4 4 4 4 4 5 5 6 6 7 8 9 11 12 13 14 15 16 17 17 18 18 18 19 19 19 19 18 18 17 16 16 16 16 16 17 17 17 16 16 15 14 13 13 14 14 14 14 14 14 14
3 2 2 3 1 2 2 2 3 2 3 4 2 4 7 10 16 18 15 12 8 7 8 9 8 8 2 5 6 8 13 9 11 12 10 10 8 6 4 3 2 2 2 2 3 4 4 4 4 5 5 6 6 6 6 7 7 8 8 9 10 11 13 14 15 17 18 19 20 20 20 21 21 21 21 20 19 19 18 17 18 18 18 19 18 18 18 18 17 15 16 16 16 15 15 15 15
2 1 1 2 2 4 2 2 3 2 1 3 3 3 11 17 23 17 12 10 6 8 11 11 13 6 2 9 6 11 14 10 13 11 10 9 7 7 6 5 4 4 3 4 4 4 5 5 5 6 6 7 7 7 8 8 9 9 9 9 9 10 10 11 13 14 16 17 19 20 21 22 22 23 23 23 22 22 21 20 20 20 20 20 20 20 20 20 19 19 19 19 19 18 17 17 16
1 1 0 2 1 2 2 0 1 2 2 3 3 4 13 22 25 16 11 9 6 9 13 15 14 4 6 12 6 13 16 12 14 11 12 10 9 9 7 8 6 6 6 5 5 5 5 5 5 5 6 7 7 7 8 8 9 9 9 10 10 10 10 11 11 12 13 15 16 18 20 21 23 24 25 25 25 24 23 23 23 23 23 23 23 23 22 22 21 21 22 22 21 20 19 18 18
1 0 1 2 2 2 2 2 1 2 3 4 4 6 15 23 23 16 13 9 7 9 13 16 10 5 9 11 7 13 17 15 16 13 13 12 10 10 9 9 8 8 7 6 6 5 5 5 4 5 5 6 7 7 8 8 9 9 9 10 10 10 11 12 12 12 12 13 14 15 17 18 20 22 24 25 26 26 25 25 25 26 26 26 26 26 25 24 24 24 24 24 23 22 22 21 20
0 2 3 3 2 1 2 3 2 3 3 3 5 7 16 25 19 13 11 7 9 10 16 15 6 9 10 7 9 13 18 18 16 15 14 13 11 11 11 11 10 9 7 7 6 5 4 4 4 4 5 5 6 6 7 8 9 9 10 10 11 11 11 12 12 13 13 14 14 14 15 16 17 19 21 23 24 26 26 27 27 27 27 28 28 28 28 27 26 26 25 25 24 24 24 24 23
2 2 3 3 2 2 2 2 3 3 4 3 4 7 14 24 15 9 12 8 12 11 16 17 6 12 8 3 11 14 19 20 17 16 15 14 13 13 13 12 11 9 8 7 6 4 4 3 3 4 4 4 5 5 6 6 7 8 9 10 11 12 12 12 13 13 14 15 15 15 16 16 16 17 18 19 21 22 24 26 27 28 28 29 29 29 29 29 29 28 27 26 26 26 27 26 26
3 2 3 2 2 1 2 1 3 2 4 3 4 6 13 22 14 12 15 9 14 11 13 20 10 10 7 3 11 17 22 21 20 18 16 15 15 15 14 13 11 10 9 8 6 5 4 2 2 2 2 3 4 4 5 6 6 7 8 8 10 11 12 13 13 14 14 15 16 16 17 17 18 18 18 19 19 20 20 22 24 26 27 28 29 30 30 31 31 31 30 29 29 29 29 29 29
4 5 4 1 1 1 3 1 2 2 4 4 4 9 14 16 12 13 14 8 15 14 11 20 14 8 7 4 10 22 25 23 23 20 19 18 16 17 15 13 12 11 11 9 7 6 5 3 2 1 2 3 3 4 5 6 6 7 7 8 8 9 10 11 12 13 14 15 16 16 17 17 18 19 19 20 20 20 20 20 21 22 24 26 27 28 29 31 32 32 33 33 33 33 32 32 31
5 6 4 2 2 1 3 1 1 3 4 3 5 11 13 10 8 11 13 8 13 16 10 16 17 7 6 9 9 19 26 26 26 23 21 20 18 18 15 15 14 13 12 10 9 7 6 4 3 1 1 2 4 5 6 7 7 7 8 8 8 9 10 11 12 13 14 15 15 16 16 17 17 17 18 19 20 21 21 21 21 22 23 23 25 26 27 29 30 32 33 34 35 36 36 35 34
5 5 4 3 1 1 3 2 2 2 4 3 7 12 10 6 8 8 12 9 9 15 13 14 20 13 7 11 7 10 23 28 27 25 23 21 20 19 17 17 16 14 13 11 9 8 6 5 4 2 2 2 4 5 7 8 8 9 8 9 9 10 10 11 12 13 14 15 15 16 16 17 17 17 17 18 18 19 20 21 22 22 23 23 24 25 25 27 28 29 31 33 35 36 37 38 38
4 3 4 2 2 2 4 4 3 3 4 4 8 14 8 3 9 8 9 10 8 14 16 14 21 23 13 10 7 6 21 30 28 27 25 23 22 21 20 19 18 16 14 12 10 9 8 6 5 4 3 2 4 5 7 8 8 8 8 9 9 9 10 11 12 13 15 16 17 17 17 18 18 18 18 18 18 18 19 20 21 21 22 23 24 25 25 26 27 28 29 30 32 34 36 37 38
2 2 3 1 3 3 5 7 7 4 1 5 11 15 10 4 10 11 6 8 9 11 18 18 19 26 23 15 9 8 21 30 30 29 27 26 25 24 23 21 20 17 15 13 12 10 9 7 7 5 4 3 3 4 6 7 8 8 8 9 9 10 10 11 12 13 15 16 18 19 20 20 20 20 20 20 19 19 19 19 20 20 21 22 23 24 25 26 27 28 29 30 31 32 33 35 37
2 3 2 2 5 4 6 7 8 5 1 4 12 14 12 7 12 14 6 6 9 8 14 19 20 25 27 22 16 13 22 30 31 30 29 28 27 26 25 23 21 19 16 15 13 12 10 9 9 7 5 3 2 3 5 7 7 8 8 9 9 10 11 12 12 14 15 16 18 19 21 21 22 22 22 22 22 21 21 20 20 20 21 21 22 23 24 25 26 27 28 29 31 32 32 33 34
1 3 2 4 6 4 6 8 8 8 2 3 10 12 11 8 12 15 7 4 7 10 15 18 23 28 28 26 21 18 23 30 32 31 29 28 27 27 26 24 22 20 18 16 15 14 13 12 10 9 6 4 2 3 5 6 7 7 8 9 9 10 11 12 12 13 14 16 17 18 20 21 22 23 23 23 23 23 22 22 22 21 21 21 21 21 22 23 24 25 26 27 28 29 31 32 33
1 3 3 4 3 2 5 7 7 9 5 3 9 9 8 9 12 14 9 3 5 16 25 24 26 29 28 27 24 22 26 31 33 32 30 30 28 28 27 25 23 21 20 19 17 16 14 13 12 10 7 5 3 3 4 5 6 7 8 9 9 10 10 11 12 13 14 15 16 17 19 20 22 22 23 24 24 24 23 23 23 23 23 23 23 23 23 23 23 24 25 26 27 28 28 29 31
2 1 4 3 4 1 3 4 4 7 6 4 8 7 7 9 12 17 15 8 10 18 26 26 27 28 26 26 25 26 29 32 34 34 32 31 31 30 28 26 24 23 22 20 18 17 16 14 12 10 8 5 3 3 4 5 6 7 8 9 9 10 10 11 12 12 13 14 15 17 18 19 21 22 23 24 24 24 24 25 25 25 25 26 26 26 25 25 25 25 25 25 26 27 28 29 29
2 2 5 4 6 4 3 3 4 6 6 6 7 7 8 9 9 17 23 23 22 20 19 18 21 25 26 24 26 28 31 34 35 35 34 33 33 32 30 28 26 24 23 21 20 19 17 15 13 11 9 6 4 3 3 4 5 6 8 8 9 9 10 11 12 12 13 15 16 17 18 20 22 23 25 25 25 25 25 25 25 25 25 26 26 27 27 27 28 28 28 27 27 27 27 28 29
2 1 3 4 8 7 5 5 6 6 7 7 5 5 8 10 7 9 22 34 30 25 21 15 15 19 24 25 28 29 30 33 35 35 34 33 33 31 30 28 27 25 24 23 21 20 18 16 15 12 10 7 5 3 2 3 4 5 7 8 8 9 10 11 12 13 15 16 17 19 20 21 23 25 26 27 28 28 27 27 26 26 26 26 25 26 27 27 28 29 29 30 30 30 29 29 29
2 2 3 4 7 8 7 8 9 8 8 9 6 8 10 11 8 8 26 36 29 28 28 22 18 16 21 27 30 31 31 34 35 36 35 34 32 31 30 29 28 27 26 24 22 21 19 18 15 13 10 7 5 3 3 3 4 6 7 8 9 9 11 12 14 15 17 18 19 20 21 22 24 25 26 27 28 28 29 29 29 29 29 28 28 28 28 27 28 28 29 30 31 32 32 32 32
2 3 4 4 6 7 8 9 10 9 10 8 7 10 12 9 7 14 30 32 24 26 28 28 24 20 22 26 30 32 33 35 36 37 36 35 34 34 33 32 30 29 27 25 23 22 21 18 16 12 9 7 5 3 3 4 5 6 7 8 9 10 11 13 14 16 17 18 19 20 21 22 24 25 26 27 28 28 29 29 30 30 30 31 31 30 31 31 30 30 30 30 31 32 32 33 34
2 3 4 6 8 9 8 9 9 9 9 9 8 8 10 6 1 11 20 14 13 18 23 26 26 25 25 26 31 33 34 35 36 37 37 37 37 37 35 34 32 29 28 26 25 24 21 19 15 12 9 7 5 4 4 4 5 6 7 8 9 11 12 13 14 16 17 18 19 20 21 22 23 24 26 27 28 29 29 30 30 31 31 31 32 32 32 32 32 32 31 31 31 32 32 33 33
2 2 4 6 7 9 9 8 8 6 5 9 9 5 6 1 3 17 22 12 10 12 17 22 24 26 27 27 31 34 36 36 37 38 39 40 39 38 37 35 33 30 28 27 26 24 21 18 14 11 9 7 5 4 4 4 5 6 7 9 10 11 12 14 15 16 17 18 19 20 21 22 23 24 26 27 28 29 30 31 31 32 32 32 32 33 32 33 33 33 33 32 32 32 32 32 33
1 1 3 5 6 4 6 4 4 5 3 5 5 3 6 5 12 26 23 15 14 13 15 20 23 25 26 28 32 34 36 37 38 40 40 40 38 37 36 34 32 30 28 27 26 23 20 16 13 11 9 7 5 4 5 5 5 6 7 8 10 11 12 13 14 16 17 18 19 20 21 22 24 25 26 28 29 29 30 31 31 32 33 33 33 33 33 34 34 35 35 36 35 35 35 34 34
1 2 1 4 7 4 2 1 1 4 3 5 6 4 7 9 21 29 20 16 15 14 18 20 23 25 26 29 32 35 37 38 41 41 41 40 38 37 35 33 31 30 29 28 26 22 19 16 13 11 9 8 6 6 6 5 5 6 7 8 9 10 11 13 14 15 17 18 19 20 21 22 23 25 27 28 29 30 30 31 31 32 33 33 34 34 35 35 35 36 36 37 38 39 39 39 38
0 1 1 1 2 4 4 1 3 3 3 8 7 3 9 8 15 20 19 20 17 17 21 21 24 26 28 31 33 36 38 40 41 41 41 40 38 37 35 34 32 31 30 28 25 21 19 16 15 13 11 9 8 7 7 5 5 5 6 7 8 10 11 13 14 15 17 18 19 20 21 22 23 25 27 29 30 30 30 31 31 32 33 34 34 35 36 36 36 36 36 37 38 39 40 41 41
2 1 3 2 1 4 7 3 6 4 2 7 6 3 10 12 11 13 16 18 18 21 23 23 25 27 29 32 34 37 38 40 42 41 42 40 39 38 37 35 33 32 30 27 25 22 20 18 16 14 12 11 10 8 7 5 5 5 6 7 8 10 11 13 14 16 17 18 19 20 21 22 23 25 27 29 31 31 32 32 32 32 33 34 34 35 36 37 37 38 38 37 38 39 40 41 42
3 1 3 3 2 3 6 3 4 4 1 4 5 3 7 8 6 7 11 15 18 21 24 24 27 28 31 33 35 38 39 41 43 43 42 41 40 39 37 36 34 32 29 27 25 23 21 20 18 15 13 12 10 8 6 5 5 5 6 8 9 11 12 13 15 16 18 19 20 21 21 23 24 25 27 29 31 32 33 33 33 34 34 34 35 35 35 36 37 38 39 38 39 40 40 41 42
3 1 2 4 3 2 4 4 2 0 2 4 5 4 10 13 11 11 11 14 17 22 26 27 28 31 33 34 36 38 40 42 44 44 43 42 41 39 37 36 33 31 29 27 25 23 22 20 18 16 14 12 10 8 6 5 5 5 6 8 10 11 13 14 15 16 18 19 20 21 22 23 24 25 27 29 32 33 34 35 35 35 36 36 35 35 35 36 36 37 38 39 39 39 41 42 42
3 3 2 4 3 3 5 5 2 2 1 4 4 7 14 17 19 23 19 16 20 27 30 30 31 33 33 34 36 38 41 44 45 44 43 42 41 40 38 36 34 32 30 28 26 24 23 21 19 17 15 13 10 8 6 5 5 5 7 8 10 11 13 14 15 16 18 19 20 20 22 23 24 25 27 29 31 33 35 35 35 35 36 36 36 36 36 36 36 36 38 39 39 39 39 40 42
5 5 4 4 5 5 6 5 3 1 1 7 8 10 14 15 19 22 21 17 23 31 31 29 31 32 32 33 36 39 42 44 44 44 43 43 42 41 40 37 35 33 31 29 27 26 24 22 20 18 16 13 11 9 7 6 5 5 7 8 10 11 13 14 15 16 18 19 20 21 22 23 24 25 27 29 32 34 35 35 35 35 36 36 37 37 37 37 37 38 39 39 40 41 40 39 40
4 4 4 5 5 6 5 3 3 1 1 9 10 9 12 16 17 20 22 17 20 28 26 26 31 31 31 32 36 39 42 43 42 43 44 44 43 42 40 38 36 35 32 31 29 27 25 23 21 18 16 13 11 9 7 6 5 6 7 8 10 12 13 14 16 17 18 19 20 21 22 23 24 25 27 30 32 34 35 35 35 35 36 37 37 38 38 38 38 39 40 41 42 42 42 41 39
4 4 4 4 4 7 6 2 4 2 2 6 7 7 12 17 16 19 19 12 20 27 22 26 33 31 30 32 36 39 39 40 40 42 44 44 45 43 41 40 39 38 36 34 31 28 26 24 21 19 16 14 12 10 8 7 6 6 7 8 10 12 13 14 15 17 18 19 21 22 23 24 25 26 28 31 33 35 35 36 36 37 37 38 39 39 39 39 39 40 41 42 44 44 44 43 40
3 3 2 4 3 5 6 3 4 2 2 5 6 8 15 18 17 21 19 16 28 33 24 30 34 29 30 33 36 37 37 39 40 42 43 44 46 45 44 43 42 40 37 35 32 29 27 25 22 20 17 15 13 11 9 8 7 7 8 10 11 12 14 15 16 17 18 19 20 22 23 24 25 27 29 32 34 36 37 37 38 38 38 39 40 40 40 40 40 40 41 42 44 45 46 45 42
2 3 2 5 3 1 4 3 4 2 2 4 7 10 14 15 15 18 17 18 29 35 29 33 34 29 32 34 34 35 36 39 40 41 42 44 46 47 47 46 44 42 39 37 34 31 29 25 22 20 18 16 14 12 10 9 8 8 9 11 12 13 14 16 16 17 18 19 20 21 22 24 26 27 29 32 35 36 37 38 38 38 39 39 40 41 41 41 40 41 41 42 43 46 48 47 46
3 5 6 6 4 5 6 3 4 3 2 2 6 10 10 7 9 10 7 6 16 24 25 29 32 30 32 31 32 34 35 37 38 39 41 43 47 50 50 49 46 44 42 40 37 34 30 26 23 21 19 17 15 13 11 10 9 9 10 12 13 14 15 17 17 18 19 20 21 21 23 25 26 28 30 33 34 36 36 37 37 38 38 38 39 41 41 41 41 41 41 42 43 45 48 49 49
4 6 10 9 6 7 5 3 4 3 3 2 4 7 7 1 3 7 4 3 7 9 12 20 25 24 26 28 30 32 33 34 36 37 38 41 45 49 50 49 48 47 46 42 38 34 29 26 24 22 20 18 15 13 11 10 10 10 11 12 14 15 16 18 19 20 21 22 23 23 24 25 28 29 31 33 34 35 36 36 36 37 38 39 39 41 41 41 41 41 41 43 44 44 47 50 51
3 4 7 7 5 4 3 1 2 0 2 3 3 2 8 2 1 7 5 4 9 8 9 19 22 19 22 27 28 29 30 31 33 34 36 39 42 47 50 51 51 50 47 42 38 34 30 27 25 23 21 18 16 14 12 11 11 11 12 13 15 16 17 18 20 21 22 23 24 24 25 25 27 29 31 32 34 35 36 36 37 37 39 39 40 41 42 42 42 41 42 42 45 45 47 50 52
3 3 4 6 6 5 5 3 1 3 1 4 0 2 8 8 5 7 5 5 11 12 13 18 21 20 21 25 26 24 24 25 27 30 34 37 40 44 48 51 52 51 47 43 39 35 31 29 26 24 22 19 17 14 13 12 12 12 13 14 16 17 19 19 20 22 23 24 25 25 26 26 27 29 30 32 33 34 36 36 37 38 39 39 40 42 42 42 42 42 43 43 45 46 47 50 53
4 3 6 6 5 5 4 4 3 2 3 4 4 4 5 10 5 2 2 4 10 14 15 15 17 19 20 21 20 17 17 19 22 26 30 33 36 39 43 47 50 50 48 44 41 36 32 29 27 25 23 20 17 15 13 13 13 13 14 15 16 17 19 20 21 23 24 25 26 26 27 28 29 29 31 32 33 34 36 36 37 38 39 39 40 41 42 42 43 43 44 45 46 47 48 50 52
3 6 6 5 4 4 3 3 2 1 1 7 7 7 5 10 4 3 2 3 9 12 12 12 15 19 19 17 14 12 13 16 19 23 26 29 32 34 38 43 48 49 48 44 40 37 33 31 29 26 23 21 18 16 14 13 13 13 14 15 16 17 19 21 22 23 24 26 27 28 28 30 31 31 32 33 34 35 36 37 38 38 39 40 40 42 42 43 43 44 45 46 47 48 49 50 52
8 7 4 4 4 4 3 1 2 1 4 8 8 12 10 8 3 5 4 5 9 9 8 9 12 18 20 16 12 11 12 14 16 20 23 26 29 31 35 41 45 48 48 45 41 38 35 33 30 27 24 21 19 16 15 14 14 14 14 16 17 18 20 21 22 23 24 26 27 28 29 31 32 33 33 34 35 36 37 37 38 39 39 40 41 42 43 44 45 46 46 47 48 49 50 51 53
6 4 3 3 4 3 4 3 3 1 6 4 3 8 9 10 6 4 6 7 7 9 8 8 9 16 20 16 13 11 13 14 16 18 21 24 27 31 35 39 44 47 48 47 44 40 37 35 32 28 25 22 20 17 15 15 14 14 15 16 18 19 20 22 23 24 25 26 28 29 30 32 33 34 34 35 35 36 37 38 38 40 40 41 41 42 43 45 46 48 48 49 50 50 51 52 53
4 3 4 2 4 3 4 3 1 3 7 2 2 3 5 12 11 7 9 10 10 10 11 11 11 15 18 16 13 13 14 16 17 18 20 23 26 30 33 37 42 46 49 50 46 42 40 37 33 29 26 23 20 18 16 15 14 14 15 16 18 19 20 22 23 24 26 27 29 30 32 34 35 35 36 36 37 37 38 39 40 41 41 42 42 43 44 45 46 48 49 50 51 51 52 52 54
6 5 4 3 1 0 3 4 2 5 7 3 3 3 4 9 9 12 17 18 17 16 19 20 17 18 18 16 16 17 18 19 19 19 20 22 25 28 31 34 39 44 49 51 48 45 42 38 34 30 27 24 21 19 16 15 14 14 15 16 18 19 20 21 23 25 26 28 29 31 33 35 36 37 38 38 39 39 40 40 41 41 42 43 43 44 45 45 47 49 51 52 53 53 52 53 55
5 4 5 5 5 4 5 4 4 7 6 4 1 2 4 5 4 8 14 16 17 20 25 24 21 23 21 20 21 22 22 22 21 22 22 23 24 26 29 33 37 41 47 51 50 46 43 39 35 31 27 25 21 19 17 15 14 15 16 17 18 19 20 21 23 24 26 28 29 31 33 35 37 38 39 40 41 42 42 42 43 43 43 44 44 45 46 47 49 50 53 54 54 55 54 54 55
3 3 4 3 5 5 3 3 4 1 4 5 3 4 6 4 3 4 6 7 9 16 21 20 24 27 23 22 25 26 26 25 24 24 24 23 24 26 29 32 35 40 46 51 51 48 45 41 36 31 28 25 21 19 16 14 14 15 16 17 18 19 20 22 23 24 26 28 29 32 33 35 37 39 40 42 42 43 43 44 44 44 44 45 45 45 47 49 51 53 55 56 56 57 56 55 55
3 2 4 3 3 6 3 2 1 4 3 6 2 5 10 7 5 6 6 5 6 10 11 13 22 24 18 21 27 28 28 26 25 25 24 24 24 26 29 31 35 39 45 51 52 49 45 41 36 32 29 25 21 18 16 15 15 15 16 17 18 19 20 22 23 25 26 27 29 32 34 35 37 40 42 43 44 44 44 44 45 45 45 45 46 47 49 50 53 56 57 58 59 57 56 57 55
6 4 5 3 2 4 3 2 3 2 5 5 5 11 16 12 7 2 3 4 8 11 9 10 17 17 15 24 30 30 30 26 24 24 23 23 24 26 28 31 34 38 43 49 51 48 43 39 35 32 29 25 21 18 17 16 15 15 16 17 18 19 20 22 24 25 26 28 30 32 34 36 38 41 42 44 45 45 45 45 45 46 45 46 47 48 51 53 54 57 58 57 58 55 55 56 53
4 4 2 4 3 2 2 2 2 3 4 4 10 16 17 13 9 6 5 8 10 11 10 11 12 12 17 26 30 30 29 26 24 24 23 23 23 25 28 30 33 37 43 48 49 46 42 39 36 32 28 24 20 19 17 16 16 15 16 17 18 19 20 22 24 25 26 28 31 33 35 38 40 41 43 44 45 46 46 45 45 46 46 47 49 50 52 54 55 57 57 57 55 51 51 53 51
2 0 0 2 2 4 3 3 3 3 4 5 11 14 15 10 7 8 11 11 11 10 10 10 11 15 22 27 28 28 27 25 24 24 23 23 24 26 29 31 33 37 43 47 47 45 43 40 37 32 27 23 21 19 17 16 16 16 16 17 18 19 21 22 23 25 27 29 32 34 37 39 41 42 43 44 45 45 45 45 45 47 48 49 50 51 54 55 56 57 56 55 54 50 49 49 47
4 3 3 2 1 2 1 1 2 3 4 4 6 10 17 9 6 8 9 9 11 11 11 10 11 18 24 26 27 26 25 24 24 23 22 23 26 28 30 32 35 38 43 46 47 45 43 40 36 31 26 23 21 19 17 17 16 16 16 17 18 19 21 22 23 25 28 31 33 36 38 40 41 42 43 43 44 43 43 45 46 47 49 50 52 53 55 56 57 57 56 54 53 49 47 46 42
9 7 8 8 6 4 1 5 2 2 4 5 5 8 18 9 6 6 7 8 9 11 11 9 12 20 25 25 26 25 24 24 22 22 23 24 27 29 31 34 37 40 43 46 47 45 43 40 35 30 26 23 21 19 17 16 16 16 16 17 18 19 21 22 24 26 29 32 34 36 38 40 42 42 42 42 42 42 43 45 47 48 50 51 52 53 55 55 55 55 54 52 50 48 46 43 40
Wind_Direction
133 134 136 141 147 152 152 145 120 14 77 83 284 178 227 189 125 177 185 201 223 261 191 160 155 153 145 130 133 110 80 138 160 139 158 157 152 168 229 277 307 315 319 320 318 318 314 304 291 275 262 259 260 262 263 261 255 247 246 248 252 257 258 266 273 272 264 277 281 272 277 280 278 273 272 274 280 279 275 274 276 281 276 276 281 288 291 291 297 301 302 305 308 308 307 306 308
142 143 139 146 154 173 197 159 117 348 59 91 211 192 228 134 164 187 192 206 173 138 128 128 132 130 117 111 111 92 76 104 122 132 138 149 155 172 223 270 299 308 310 309 312 315 314 310 302 289 271 262 260 261 265 265 262 260 258 253 252 255 257 262 267 268 265 273 277 271 272 280 284 280 278 274 276 278 278 273 269 272 274 277 279 283 285 281 284 291 297 300 303 303 303 302 301
156 155 148 149 153 175 181 85 87 108 81 131 234 235 182 164 197 213 206 173 136 127 121 122 120 115 112 106 109 96 117 125 128 134 144 159 163 177 220 268 293 299 304 314 320 321 319 315 305 297 287 276 270 266 266 268 267 268 268 265 262 261 261 261 264 267 269 273 278 279 274 274 278 280 282 277 273 273 274 271 266 262 264 272 275 280 280 279 278 277 285 292 296 298 298 296 296
166 168 163 152 141 149 106 58 131 129 110 179 244 230 200 182 191 229 181 148 136 131 125 130 113 116 131 131 134 114 144 153 152 150 160 172 179 196 226 264 284 302 316 331 331 331 325 318 312 302 297 291 286 282 277 275 274 273 273 272 271 269 268 266 265 266 267 268 270 276 278 279 281 280 281 281 279 274 272 270 267 263 263 265 266 273 276 278 279 275 276 280 284 288 291 292 291
160 176 188 188 178 174 101 75 107 108 168 177 160 230 214 188 177 174 157 148 144 139 143 158 120 135 140 146 151 141 168 164 167 171 173 175 183 201 225 258 282 313 327 345 349 345 333 329 332 324 318 308 299 295 289 285 281 278 277 275 275 274 273 271 269 268 267 266 266 269 274 277 279 282 282 281 281 278 275 274 271 267 265 265 262 264 271 277 278 276 276 275 275 276 280 284 288
148 124 157 178 168 138 132 111 106 130 215 171 153 215 196 184 167 154 156 159 166 180 196 184 166 154 145 162 175 177 166 165 175 178 177 176 181 192 211 245 269 306 319 341 351 342 342 350 350 348 341 332 323 312 304 296 291 286 283 280 278 277 275 274 273 272 271 270 269 270 272 272 273 277 280 279 280 279 278 277 275 271 265 265 264 262 264 269 273 276 276 274 273 272 272 275 280
145 111 99 148 104 38 114 143 165 179 192 175 190 181 174 177 162 152 159 173 199 233 215 207 180 151 151 178 179 175 168 173 176 176 181 182 184 188 200 207 211 228 269 298 313 319 326 337 337 339 337 335 333 328 325 319 314 307 301 296 290 286 282 279 277 276 274 273 272 272 271 271 271 272 274 276 277 277 279 279 277 275 270 267 265 264 262 263 265 269 270 268 268 270 269 270 273
154 199 48 128 35 26 85 134 192 194 157 221 273 182 174 171 163 157 170 180 196 208 203 201 176 156 203 174 175 182 178 183 178 180 185 187 191 190 196 190 190 209 236 263 277 297 301 313 317 321 324 326 327 327 327 326 324 322 320 316 312 306 298 292 285 280 276 275 273 271 271 271 271 272 273 273 274 275 276 277 277 277 276 273 269 266 265 264 265 264 263 261 262 265 266 267 267
136 239 316 85 58 34 42 60 211 231 271 253 266 196 179 171 168 166 174 191 195 189 193 182 173 187 184 170 183 187 185 189 185 187 187 191 195 191 192 186 191 209 232 251 260 279 285 298 305 314 318 319 321 322 322 322 322 320 320 317 316 313 309 306 298 292 285 280 277 274 273 272 272 272 273 273 274 274 274 275 275 276 276 277 277 275 273 270 269 265 264 263 260 261 262 263 264
85 50 133 80 81 36 337 269 226 239 247 246 249 197 177 173 174 176 175 196 206 185 180 174 183 202 169 171 187 188 191 191 189 190 190 194 193 192 192 190 201 212 232 245 253 268 275 294 302 312 315 318 319 320 321 321 322 318 318 315 312 309 305 305 302 301 297 293 289 284 281 277 276 273 273 273 273 274 274 275 274 275 275 276 278 279 279 276 274 269 269 269 264 262 261 261 262
230 31 107 78 77 130 242 235 249 248 257 286 261 200 177 174 171 178 178 194 204 182 173 173 203 188 165 185 196 193 194 192 194 194 193 196 193 194 196 199 208 216 231 236 244 257 267 290 296 310 312 319 320 321 324 320 320 317 316 314 311 310 306 304 301 300 298 297 296 293 291 286 283 280 278 276 274 274 274 275 274 274 274 274 273 274 276 277 277 274 271 270 267 266 264 262 260
196 17 80 90 146 202 214 218 247 270 302 312 227 198 181 176 168 176 180 191 189 177 183 184 197 180 161 214 205 200 195 193 193 196 199 196 196 198 200 205 211 218 225 228 235 242 256 277 287 310 316 326 331 329 330 324 322 319 317 317 315 315 313 311 307 304 300 298 296 294 294 293 292 289 286 283 280 278 276 275 274 273 273 273 272 271 271 272 274 274 272 270 268 269 268 266 264
186 137 96 124 175 184 167 210 264 313 306 254 196 185 177 179 188 197 181 179 178 172 198 194 191 178 172 217 205 202 196 193 191 196 201 196 200 201 203 208 211 219 220 223 227 232 242 255 277 313 342 349 350 346 342 338 335 331 329 327 325 325 322 321 318 315 311 307 303 300 297 295 294 293 292 291 289 286 283 280 278 276 275 274 272 271 270 269 270 270 270 270 269 269 269 269 268
171 147 114 144 97 72 161 217 271 198 258 244 181 174 172 183 210 210 182 168 186 186 198 198 193 180 193 199 204 208 198 191 192 197 200 200 204 203 206 210 214 218 218 221 222 229 233 241 258 292 16 21 13 8 0 355 349 345 343 339 338 335 333 331 329 326 323 320 316 311 307 303 299 297 295 293 292 291 289 287 285 282 280 278 276 273 271 270 268 268 268 268 269 269 269 269 269
150 137 96 103 60 350 193 237 208 168 245 223 165 174 172 193 221 213 196 192 203 196 181 190 190 187 211 194 212 220 201 191 193 197 200 203 205 205 210 212 217 217 215 219 218 226 226 232 241 250 348 16 15 15 13 7 2 356 353 349 347 346 345 344 343 341 337 332 328 322 317 312 308 303 300 297 294 293 291 290 288 287 285 282 281 279 277 274 272 269 268 268 268 268 268 268 268
139 129 80 88 129 262 209 207 135 139 255 203 162 175 169 206 213 201 205 208 205 194 185 187 192 202 224 200 226 237 201 194 194 198 201 204 207 207 211 212 216 215 213 216 215 222 220 226 232 241 290 342 357 6 10 9 7 4 2 357 354 353 352 352 353 351 348 345 339 334 328 322 317 311 307 303 299 297 294 292 291 289 288 286 284 282 281 279 278 275 272 270 269 268 268 268 267
138 107 76 91 165 211 202 189 176 172 245 215 174 180 170 212 208 197 207 210 204 195 197 199 201 212 225 211 227 227 199 198 195 198 201 204 207 206 209 211 213 212 212 215 216 219 219 224 228 238 260 298 337 358 5 8 11 10 9 5 1 358 356 356 355 354 352 350 346 343 338 333 328 323 318 313 309 305 301 298 296 294 292 290 288 286 284 282 281 280 278 276 273 271 269 267 266
124 102 102 167 185 197 190 186 196 170 187 210 190 184 179 198 199 195 205 212 212 206 208 212 213 219 225 223 228 219 200 199 198 199 202 204 207 207 209 210 210 212 213 216 219 221 220 224 228 236 249 275 323 359 8 13 16 17 15 12 8 3 360 358 356 355 353 351 349 346 343 340 336 333 329 325 321 318 314 309 305 301 298 295 293 292 289 287 284 282 281 279 278 276 274 272 270
96 105 99 230 197 201 203 192 197 183 30 199 190 187 191 210 195 191 208 213 200 206 216 218 222 225 227 227 230 221 202 202 202 201 204 206 207 208 209 210 210 213 215 219 223 224 223 225 230 234 242 262 312 2 13 19 20 20 19 15 11 6 2 359 357 356 354 352 349 347 344 342 339 336 333 330 327 324 321 318 315 311 307 304 300 297 294 292 290 287 285 282 280 279 278 276 275
112 103 111 245 214 231 225 210 215 214 257 176 184 192 202 218 195 190 204 205 193 212 219 215 224 229 227 225 226 216 203 203 204 203 206 208 210 211 212 213 214 215 219 223 226 226 225 227 230 232 238 252 291 353 13 22 24 22 20 16 11 7 3 0 358 356 354 352 350 347 345 342 339 336 333 331 328 325 323 320 318 316 313 311 308 306 302 299 296 293 290 287 285 283 280 278 277
192 124 168 231 195 242 228 220 238 226 234 196 180 183 212 221 198 196 196 190 222 230 230 227 236 238 227 220 218 211 205 204 203 204 207 209 211 211 214 215 217 219 222 226 227 224 224 227 230 234 239 248 278 337 9 17 20 22 21 17 12 8 4 0 358 356 354 352 350 347 344 341 338 334 332 329 327 326 325 323 321 320 318 316 314 312 310 308 305 302 299 296 292 289 286 283 280
145 186 230 226 169 206 267 233 236 219 214 188 171 171 214 206 203 210 199 202 237 241 245 245 248 248 237 227 219 210 206 205 204 205 207 209 210 211 213 213 215 219 223 227 225 224 226 229 233 235 240 247 272 314 351 5 12 16 18 16 14 9 3 0 357 354 353 352 350 347 344 340 337 334 332 330 330 328 327 327 326 324 323 321 320 317 316 314 313 311 309 306 302 299 295 291 288
177 271 256 234 196 209 295 259 235 223 208 187 180 198 211 191 218 227 214 226 241 249 259 257 252 249 242 233 221 213 209 208 208 208 209 209 211 213 214 214 217 221 225 227 225 225 227 229 232 233 236 242 259 287 329 355 3 6 10 13 12 8 3 360 356 354 352 352 350 348 345 341 339 336 334 333 332 331 330 330 329 328 326 325 323 321 321 319 318 316 314 313 310 307 304 300 296
156 237 254 227 215 230 268 266 244 232 225 228 216 217 214 202 229 239 231 241 245 248 256 256 255 246 236 227 220 219 216 215 213 211 211 212 214 216 217 218 221 224 226 226 224 224 225 227 228 229 232 236 249 270 311 347 359 1 5 9 9 6 3 359 355 354 352 352 350 348 346 343 341 338 335 334 332 332 331 331 331 331 330 329 328 325 324 322 321 319 318 316 314 312 310 307 303
120 181 233 215 226 244 260 263 247 237 239 246 245 242 237 229 243 259 255 258 254 248 251 250 252 245 232 225 221 220 217 216 214 211 211 213 215 217 219 221 223 225 225 224 223 222 224 226 226 228 231 236 247 270 313 344 357 359 3 4 4 4 0 358 355 354 352 351 349 347 345 343 341 338 336 334 332 331 330 330 330 331 331 331 330 329 327 326 324 322 320 318 317 315 313 312 309
174 179 217 217 241 256 257 256 247 244 245 240 242 253 257 254 267 270 265 267 263 251 248 247 247 243 234 226 223 221 218 218 214 211 211 212 214 217 220 221 223 224 223 222 222 223 225 227 229 231 234 243 256 283 320 340 352 353 357 357 359 1 359 357 354 353 351 348 347 344 343 342 340 338 335 334 332 330 329 328 329 329 329 329 329 329 329 328 327 326 323 321 319 317 315 315 313
211 211 232 229 246 261 259 253 247 247 250 236 228 254 267 255 234 265 265 271 264 249 242 242 241 240 237 229 225 222 221 221 216 213 212 212 215 218 220 220 221 221 221 222 222 225 227 229 232 235 240 248 261 287 311 326 342 345 348 351 354 357 356 355 352 349 347 344 342 341 341 340 338 337 335 333 331 330 329 328 327 328 328 327 327 328 327 327 327 327 325 323 322 319 317 316 313
273 282 258 254 265 264 252 252 251 238 248 238 223 254 273 179 162 247 254 266 268 253 241 239 237 237 236 230 226 222 222 221 217 215 215 217 219 219 220 220 220 221 221 223 225 228 229 232 234 237 243 249 259 277 296 311 329 337 341 347 352 353 353 351 348 344 341 339 338 338 338 338 337 336 334 332 331 330 329 328 327 327 327 327 326 326 326 325 325 325 324 323 322 320 318 316 314
285 18 279 295 338 303 245 256 246 201 228 227 191 274 263 189 225 244 250 260 261 252 242 239 236 236 232 228 225 222 222 219 216 218 221 223 222 221 221 221 222 223 223 225 227 229 230 234 237 239 241 245 252 264 282 299 316 329 337 344 348 350 348 345 342 339 336 334 334 335 336 336 337 336 335 333 331 330 328 327 327 326 326 326 325 325 324 324 323 323 323 323 322 321 319 317 316
222 64 39 312 353 335 241 64 142 175 208 181 147 279 262 214 232 244 252 253 249 240 239 239 236 234 230 227 224 223 222 219 219 222 223 222 222 223 223 223 223 224 225 227 229 230 232 235 237 239 239 241 247 258 270 286 305 322 334 341 345 344 342 340 338 335 332 331 332 334 335 335 336 336 335 332 330 329 327 327 326 326 325 325 325 324 323 323 323 323 323 322 321 321 321 320 318
227 14 37 8 343 285 282 9 140 154 207 179 152 269 267 254 244 248 252 248 243 238 239 240 236 234 231 227 224 224 223 223 223 223 223 222 222 223 224 224 224 224 226 227 229 230 232 235 236 237 237 239 244 252 261 275 295 316 330 336 338 337 337 337 334 332 329 330 332 334 334 333 335 335 333 330 328 327 326 326 325 325 325 324 324 324 324 323 323 322 322 321 320 320 320 320 319
27 336 304 339 190 267 302 290 181 200 211 175 166 245 271 277 272 259 247 241 238 238 242 241 239 237 233 229 225 226 226 224 223 223 223 222 222 223 223 224 224 225 227 227 228 229 231 234 235 237 236 237 239 244 253 270 291 311 325 330 334 334 336 334 331 330 330 332 334 333 332 332 335 335 332 328 326 325 324 324 324 324 323 323 323 323 323 322 322 321 322 321 320 319 318 318 317
6 55 256 271 217 276 313 305 210 222 169 187 213 242 278 280 275 253 232 234 235 236 242 241 241 241 235 232 228 227 227 224 223 223 224 222 222 223 223 224 225 226 227 227 228 229 232 234 235 236 233 234 236 241 250 265 289 309 320 327 331 333 333 331 330 330 331 333 333 332 331 332 333 332 329 326 323 323 323 323 323 323 323 323 322 322 322 321 321 320 320 320 320 319 318 316 316
323 16 256 251 225 253 294 302 310 159 158 223 237 236 257 265 273 263 242 244 241 237 243 244 245 245 239 234 230 229 228 226 226 226 224 222 221 222 223 224 225 226 225 225 228 230 232 234 235 234 232 233 235 240 249 261 284 304 316 326 330 332 330 328 331 332 333 333 331 330 328 329 329 327 326 324 322 321 321 322 323 323 323 323 322 321 321 320 319 318 318 318 318 317 317 316 316
232 235 247 273 255 239 252 264 300 71 148 242 237 242 254 264 273 269 259 251 246 248 251 249 249 247 242 235 232 233 231 231 232 230 226 223 221 222 222 224 223 223 223 224 227 228 230 232 232 232 232 232 235 237 243 256 277 299 314 325 327 328 327 327 332 333 333 331 328 327 325 326 325 324 324 323 322 320 320 321 321 322 322 322 321 320 319 318 318 317 316 315 315 315 315 315 315
190 205 197 234 256 258 240 238 256 91 248 255 239 242 255 263 269 271 267 253 247 254 256 252 250 248 242 237 236 236 235 237 238 232 227 223 223 223 223 223 222 221 222 224 226 227 228 230 231 232 232 232 232 234 238 252 273 295 311 321 321 324 327 327 330 332 332 328 325 324 322 323 322 323 324 323 321 320 319 319 319 320 319 319 319 318 318 318 318 317 316 315 314 313 313 314 314
134 148 183 226 240 267 261 243 290 46 217 260 251 247 259 261 263 268 270 264 250 252 253 249 249 246 241 237 239 239 240 244 241 233 228 225 225 225 224 223 221 220 220 222 224 226 228 230 231 231 231 231 229 233 238 249 268 291 304 314 318 320 325 328 329 329 329 325 322 321 319 320 321 323 324 322 321 319 318 318 318 318 318 318 317 317 317 317 317 317 316 315 314 313 312 314 314
104 149 205 255 232 257 270 281 318 359 170 264 280 278 266 261 263 265 262 257 253 251 245 248 250 247 242 240 243 244 245 245 241 235 230 225 225 225 224 223 222 221 221 222 224 225 228 229 230 229 228 229 229 232 239 250 267 285 298 309 318 321 324 329 329 327 326 323 320 318 318 320 322 324 324 322 320 319 318 318 319 319 318 318 317 316 316 316 316 315 315 314 313 313 312 313 315
101 136 178 263 242 271 297 341 347 3 183 270 296 288 272 265 264 263 252 238 254 259 251 252 253 246 243 243 245 246 245 243 239 237 232 227 225 224 224 224 223 224 223 224 225 225 227 228 227 227 227 228 229 234 240 251 268 283 297 307 317 321 323 327 327 323 321 320 318 317 318 321 323 324 323 322 320 319 319 319 319 319 318 317 316 315 315 315 315 314 314 314 313 312 311 312 313
148 151 176 251 247 290 288 310 325 278 219 276 288 277 269 265 258 262 259 242 253 263 260 259 256 248 246 249 251 250 247 244 240 237 234 228 224 223 224 224 224 223 223 223 224 224 226 227 227 228 228 228 230 236 242 254 269 285 298 307 315 321 323 322 322 320 318 317 316 316 318 320 322 322 322 320 318 317 317 316 317 316 315 315 314 314 313 314 314 314 314 313 312 311 310 311 310
246 196 206 238 231 221 238 282 322 307 312 316 306 290 275 261 250 258 280 259 255 261 261 259 253 248 249 251 253 253 250 248 243 239 235 230 225 224 224 224 224 224 223 223 224 225 226 227 228 228 227 229 232 236 244 257 272 287 299 307 313 318 320 318 317 318 317 317 318 319 321 321 321 323 321 318 315 314 314 314 314 313 313 313 312 312 312 312 313 312 312 311 311 310 309 308 307
293 229 215 222 224 232 250 324 353 356 333 330 0 318 291 301 249 261 293 318 274 263 260 261 255 246 243 243 248 251 251 250 246 244 241 235 229 225 223 223 224 225 226 225 224 225 227 227 227 228 228 229 233 238 247 260 274 287 298 305 310 314 317 318 317 318 319 319 320 322 322 322 322 323 320 316 315 314 314 314 314 313 313 313 312 311 311 311 311 310 311 310 309 309 307 306 305
294 247 205 200 199 212 230 2 11 257 254 300 49 310 276 276 210 258 266 275 276 275 273 271 265 251 239 242 249 252 252 251 247 245 243 238 231 225 223 225 226 227 226 224 223 225 225 225 226 228 229 230 234 241 250 262 275 287 296 303 308 311 314 317 317 317 318 318 320 321 320 322 322 320 317 315 315 315 315 315 315 314 313 313 312 311 311 311 310 309 309 308 307 306 305 303 303
241 237 130 137 154 178 193 144 174 230 272 318 316 188 273 274 234 249 253 258 276 275 272 274 270 258 244 248 253 253 254 254 250 247 243 238 233 228 228 228 228 228 226 223 222 224 223 224 227 228 228 230 235 243 252 263 276 286 294 301 307 309 311 316 316 315 317 318 319 319 319 321 320 317 315 314 314 314 313 314 314 313 312 311 310 309 310 310 309 309 307 306 304 303 301 300 300
239 186 115 125 142 152 155 134 189 261 34 303 251 160 273 274 237 266 315 242 260 263 258 262 266 260 251 251 253 251 256 259 258 255 248 243 238 235 234 231 229 227 225 223 223 223 223 224 226 227 228 231 235 244 254 265 275 284 292 299 304 308 310 313 316 316 317 317 318 319 320 322 320 317 315 314 313 313 312 312 312 311 310 310 309 308 308 308 307 306 304 303 301 299 298 297 297
174 130 96 76 72 80 85 122 157 28 355 262 239 167 230 274 221 127 69 205 236 250 253 255 259 260 256 249 244 245 257 262 262 260 254 248 245 242 236 231 229 228 225 223 223 222 223 224 225 227 229 231 236 244 254 265 274 282 290 296 301 305 308 311 314 316 316 316 318 320 321 322 319 317 315 314 314 313 312 312 311 311 310 310 309 308 308 306 305 303 301 300 298 297 296 295 294
127 110 71 47 37 52 48 65 97 24 264 259 234 180 194 270 247 164 185 202 208 218 239 255 259 259 254 241 233 245 262 266 263 259 254 249 246 241 235 231 230 227 223 221 221 221 221 223 225 227 228 230 236 244 252 262 271 280 288 294 300 305 307 310 312 314 315 316 318 319 320 319 317 316 315 314 314 313 312 312 312 311 311 310 309 308 306 305 303 301 299 298 296 295 294 294 292
114 96 72 25 336 13 17 355 54 272 254 261 241 178 189 244 250 202 229 245 218 200 213 230 241 250 244 230 228 250 268 269 263 257 252 246 241 236 232 231 229 225 221 219 219 219 220 222 224 226 227 230 236 243 250 259 268 278 287 293 299 303 307 309 312 314 315 316 317 318 318 316 314 314 313 313 313 313 313 313 313 312 311 310 308 306 304 303 301 299 298 297 296 295 294 293 292
107 102 90 40 318 347 342 305 120 233 254 252 143 144 219 246 246 232 243 254 237 215 213 212 218 238 237 229 237 257 269 269 265 259 253 247 241 237 234 231 228 225 221 219 219 218 219 221 223 225 227 230 236 241 249 258 266 277 286 293 297 301 305 309 311 314 315 316 317 319 318 315 314 314 314 314 314 314 314 313 313 312 311 309 307 305 303 301 300 299 298 297 296 296 295 293 292
165 153 132 142 169 5 284 270 278 273 271 272 145 147 255 270 257 221 222 233 226 218 223 221 224 237 240 240 250 261 267 267 265 261 256 251 246 243 240 234 229 226 222 219 218 218 219 220 222 224 226 230 235 241 248 256 266 276 284 290 295 299 304 308 311 312 314 316 317 318 317 315 315 315 315 316 316 315 315 314 313 311 310 308 306 305 303 301 301 300 299 298 297 297 296 294 292
180 154 141 158 152 178 234 235 254 276 290 292 227 178 231 264 273 211 215 234 230 224 229 231 237 245 248 250 254 259 263 263 264 262 258 256 252 247 243 237 232 227 222 219 218 218 219 220 221 223 225 230 234 240 247 255 265 274 281 287 293 298 303 306 309 311 313 315 317 316 315 315 315 316 316 316 316 316 315 314 313 311 310 308 307 306 305 303 303 301 300 299 299 298 297 295 293
196 124 126 181 177 174 213 213 197 233 317 289 233 218 231 235 280 243 228 250 237 230 233 233 241 246 246 250 253 257 260 260 262 261 260 257 251 246 243 238 232 227 222 219 218 218 219 220 221 222 225 230 234 240 247 255 263 271 278 286 292 297 301 304 307 310 312 314 316 315 314 315 316 315 315 316 316 316 315 314 313 311 310 309 309 308 307 306 305 303 302 301 301 300 299 297 295
164 156 174 203 178 138 140 258 55 74 280 273 254 259 273 284 279 234 214 224 229 235 232 225 236 241 239 246 251 253 255 256 258 260 261 257 250 246 243 238 233 228 223 220 218 218 219 220 221 222 224 228 233 240 246 253 260 268 276 283 290 295 299 304 307 310 312 315 315 313 314 315 315 316 316 316 316 315 315 314 312 312 312 311 311 310 308 308 306 305 304 303 303 302 300 299 297
132 195 207 165 107 94 108 244 356 30 245 271 293 273 276 282 279 245 160 192 225 234 230 229 240 240 237 243 247 249 250 250 254 258 257 254 250 248 244 239 235 231 226 222 219 217 218 220 223 223 225 228 232 238 244 251 258 266 275 281 288 294 299 305 307 310 313 314 314 313 314 315 316 316 317 316 316 315 315 314 314 313 313 312 312 311 310 309 307 306 304 303 303 302 299 298 294
128 197 203 111 142 157 111 170 222 246 236 272 283 277 274 261 252 260 230 208 216 227 225 230 239 234 233 240 243 245 245 245 249 253 253 251 251 250 246 239 234 230 226 222 218 216 217 220 222 222 224 227 231 237 242 250 257 265 273 280 287 294 300 304 307 310 313 313 313 314 315 316 317 318 318 317 316 316 315 315 315 315 314 314 313 312 311 309 307 305 304 302 302 300 296 294 291
70 140 50 61 166 173 167 168 181 207 214 260 278 281 276 251 205 222 230 209 202 210 214 219 229 227 226 234 241 241 239 242 247 250 250 250 251 250 246 239 234 228 223 218 215 215 217 219 220 220 222 225 230 235 241 248 256 264 272 280 288 295 300 304 308 312 313 313 314 315 316 317 319 319 319 318 316 317 317 317 316 316 315 315 314 313 311 309 307 305 304 303 303 300 295 293 293
157 175 177 206 186 126 206 234 126 146 188 239 260 269 272 260 162 188 209 194 195 198 200 211 221 225 229 235 240 237 235 242 247 248 249 251 251 249 243 236 231 226 219 215 214 215 217 219 220 220 222 224 229 234 239 247 256 264 273 282 290 297 301 306 311 313 313 314 315 316 318 319 320 320 319 318 318 318 318 318 317 317 316 316 315 314 312 310 308 306 306 305 304 301 297 297 294
175 189 187 193 181 128 208 250 219 156 185 206 199 251 269 264 133 172 190 175 197 198 196 210 216 223 234 240 236 233 236 243 246 248 251 251 249 246 240 233 227 221 216 213 213 216 218 219 218 219 221 224 229 234 238 247 256 264 275 284 291 298 303 308 312 313 313 314 315 317 319 319 320 320 319 319 319 320 319 318 318 317 317 316 315 314 312 310 308 307 307 306 303 301 301 300 296